This demonstration page uses our WeatherBlox Daily Observations layout. Learn more.

Left ArrowRight Arrow

41.55636, -103.73856

Hourly Observations for February 14, 2016

Temp ( °F °C ) Dew Point ( °F °C ) Humidity (%) Winds ( mph kmh ) Pressure ( in mb ) Visibility ( mi km ) Precip ( " mm )
12:53 am 00:53 Clear 33 0.6 25 -3.9 72 72 NW 10 17 30.05 1018 10 16.0934 N/A
1:53 am 01:53 Clear 30 -1.1 24 -4.4 79 79 WNW 8 13 30.02 1017 10 16.0934 N/A
2:53 am 02:53 Clear 26 -3.3 23 -5 88 88 NNW 6 9 30 1016 10 16.0934 N/A
3:53 am 03:53 Clear 26 -3.3 21 -6.1 81 81 N N/A 29.96 1015 10 16.0934 N/A
4:53 am 04:53 Clear 25 -3.9 22 -5.6 88 88 N N/A 29.93 1014 10 16.0934 N/A
5:53 am 05:53 Clear 28 -2.2 23 -5 81 81 W 5 7 29.91 1013 10 16.0934 N/A
6:53 am 06:53 Sunny 25 -3.9 21 -6.1 85 85 N 7 11 29.93 1014 10 16.0934 N/A
7:53 am 07:53 Partly Cloudy 29 -1.7 24 -4.4 82 82 N N/A 29.95 1014 10 16.0934 N/A
8:53 am 08:53 Cloudy 33 0.6 27 -2.8 78 78 N N/A 29.93 1014 10 16.0934 N/A
9:53 am 09:53 Mostly Cloudy 37 2.8 26 -3.3 65 65 WSW 6 9 29.91 1013 10 16.0934 N/A
10:53 am 10:53 Partly Cloudy 49 9.4 24 -4.4 38 38 WNW 20 31 29.86 1011 10 16.0934 N/A
11:53 am 11:53 Sunny 53 11.7 22 -5.6 30 30 WNW 24 39 29.82 1010 10 16.0934 N/A
12:53 pm 12:53 Sunny 53 11.7 22 -5.6 30 30 NW 22 35 29.81 1009 10 16.0934 N/A
1:53 pm 13:53 Cloudy 53 11.7 25 -3.9 34 34 WNW 23 37 29.79 1009 10 16.0934 N/A
2:53 pm 14:53 Cloudy with Light Rain 48 8.9 30 -1.1 50 50 NW 14 22 29.84 1011 10 16.0934 0.01 0.254
3:53 pm 15:53 Cloudy with Light Rain 43 6.1 31 -0.6 63 63 N 15 24 29.86 1011 10 16.0934 0.02 0.508
4:53 pm 16:53 Cloudy 42 5.6 28 -2.2 58 58 NNE 7 11 29.87 1012 10 16.0934 0.01 0.254
5:42 pm 17:42 Cloudy with Light Rain 37 3 32 undefined 81 81 N 26 43 30 1016 10 16.0934 N/A
5:53 pm 17:53 Cloudy with Light Snow 36 2.2 32 undefined 86 86 NNW 18 30 29.98 1015 7 11.26538 N/A
6:12 pm 18:12 Cloudy 36 2.2 33 0.6 89 89 NNW 10 17 30 1016 10 16.0934 0.01 0.254
6:53 pm 18:53 Cloudy 34 1.1 31 -0.6 89 89 WNW 6 9 30.01 1016 10 16.0934 0.01 0.254
7:53 pm 19:53 Mostly Clear 34 1.1 31 -0.6 89 89 WNW 9 15 30.01 1016 10 16.0934 N/A
8:53 pm 20:53 Clear 33 0.6 30 -1.1 89 89 WNW 9 15 30.02 1017 10 16.0934 N/A
9:53 pm 21:53 Clear 32 undefined 29 -1.7 88 88 NW 10 17 30.02 1017 10 16.0934 N/A
10:53 pm 22:53 Mostly Clear 30 -1.1 28 -2.2 92 92 NW 6 9 29.98 1015 10 16.0934 N/A
11:53 pm 23:53 Clear 28 -2.2 24 -4.4 85 85 NNW 5 7 29.97 1015 10 16.0934 N/A

Powered by AerisWeather